Theta_e
349 348 351 349 349 352 349 347 347 347 345 344 345 347 347 348 348 349 349 349 349 349 348 348 347 347 347 345 344 344 345 346 346 347 347 348 347 346 346 346 346 346 346 347 348 347 347 349 348 348 351 353 353 353 353 353 354 352 352 353 354 355 354
350 348 350 349 350 351 348 347 347 346 345 345 345 346 347 347 347 348 348 349 349 349 348 348 346 346 346 345 345 345 345 347 347 347 347 347 347 347 346 346 346 345 346 347 348 348 348 349 349 348 350 352 351 352 352 353 353 353 353 354 355 355 355
348 347 348 348 350 350 349 348 346 346 347 346 346 345 346 347 347 348 348 348 349 349 348 348 347 346 345 346 345 346 347 348 348 348 347 348 347 347 346 346 346 346 347 348 348 348 348 348 349 349 350 351 351 351 352 353 353 353 353 354 355 355 354
345 345 346 347 349 348 348 347 346 346 347 347 347 346 345 347 347 347 348 348 348 348 348 348 348 347 346 346 346 347 348 349 349 348 347 348 347 347 346 346 346 346 347 349 348 349 348 348 349 350 350 351 351 352 353 353 353 353 353 354 354 354 354
343 343 344 345 346 347 347 347 347 347 346 347 347 347 346 346 346 347 347 348 348 348 349 349 349 348 346 346 347 348 349 349 349 349 348 348 347 346 347 346 347 348 348 349 349 349 348 348 348 349 349 351 352 353 353 354 353 353 353 354 354 354 354
342 342 343 344 345 346 346 346 347 348 347 347 347 347 348 347 346 347 346 348 349 349 349 349 349 349 347 348 348 349 349 350 350 349 348 348 347 347 347 347 348 348 348 349 350 349 348 349 349 349 350 351 352 353 353 352 352 352 352 352 353 353 353
342 342 343 344 345 345 346 347 348 349 347 347 347 347 348 347 347 347 346 347 349 349 350 349 349 349 348 348 349 349 350 350 350 350 349 349 349 349 348 347 347 347 348 349 350 350 349 350 350 351 351 351 352 352 352 351 351 351 351 351 351 352 352
341 343 344 345 346 346 347 348 348 348 348 347 348 348 348 348 348 347 347 347 348 349 349 349 349 350 349 349 349 350 350 350 350 350 349 349 350 350 350 349 348 348 349 350 350 351 351 351 351 351 351 351 351 351 351 350 350 350 351 351 351 351 352
341 344 346 346 346 347 348 348 348 348 348 347 347 348 348 348 348 347 347 347 348 349 349 349 349 350 350 350 350 350 350 350 350 350 349 349 349 350 351 351 350 349 350 351 351 351 351 350 351 351 351 350 350 351 350 350 350 350 350 350 350 351 351
343 344 346 346 346 347 347 347 347 348 348 347 346 347 347 348 348 348 348 347 347 348 348 349 349 350 351 350 350 350 350 350 350 350 350 349 348 349 350 350 351 351 351 352 352 351 351 350 351 351 351 351 351 351 351 351 350 350 350 350 351 351 351
343 343 345 345 345 346 346 347 346 347 347 347 347 346 346 347 348 348 348 348 347 348 349 349 349 350 350 350 351 351 351 350 350 350 350 350 349 349 348 350 351 351 351 351 351 351 350 350 351 351 351 351 351 350 350 351 350 350 350 350 350 350 351
343 342 343 343 344 344 345 346 345 345 345 346 347 347 346 346 347 348 348 348 348 348 349 349 350 350 350 351 351 351 351 351 351 351 351 350 350 349 349 349 351 351 351 351 351 351 350 351 351 351 351 350 350 350 350 350 350 350 350 349 349 349 350
341 340 339 341 343 343 344 344 344 344 344 345 346 347 347 346 347 347 348 348 348 349 349 349 349 349 350 350 350 350 352 352 351 351 351 351 350 350 349 350 350 351 351 351 351 351 350 351 350 350 350 349 349 350 350 350 350 350 350 350 349 348 348
339 338 337 339 341 342 344 344 344 344 344 345 346 346 347 347 347 347 347 348 348 348 348 348 348 348 348 348 349 349 351 352 352 352 351 352 351 350 350 350 350 351 351 351 351 350 350 350 350 349 349 349 350 350 350 351 351 350 350 349 349 349 349
340 339 338 339 340 342 344 344 344 344 344 345 346 346 347 347 347 347 347 347 347 347 348 348 347 347 348 348 349 348 349 351 352 352 352 352 352 351 351 350 350 351 351 351 350 349 350 350 350 350 350 350 350 350 350 351 350 351 351 350 349 349 350
340 339 339 340 340 342 344 344 344 344 344 345 345 346 347 347 347 347 347 347 347 347 347 347 347 347 347 348 348 348 349 350 352 352 352 352 352 352 352 351 351 351 351 351 350 350 350 350 351 351 350 350 350 350 350 350 350 351 350 350 350 350 350
340 341 340 340 341 342 342 342 342 342 343 343 342 343 344 345 346 347 347 348 347 347 347 347 347 347 347 347 347 348 349 351 352 353 352 352 352 352 352 352 352 352 352 352 351 351 352 351 351 351 350 350 350 350 350 350 350 351 351 351 350 350 351
340 340 341 341 341 342 341 340 340 341 342 342 341 341 342 343 344 344 346 347 347 347 348 347 348 347 347 347 347 347 349 350 352 352 352 353 352 352 352 352 352 352 352 352 352 352 352 351 350 350 349 349 349 350 350 350 351 351 351 350 350 350 352
341 340 341 341 340 341 340 339 339 340 340 341 340 341 341 341 343 344 345 347 347 348 348 348 348 348 347 348 347 347 348 349 350 352 352 352 352 352 352 352 352 352 352 352 352 351 351 350 349 349 349 349 350 350 350 350 351 351 351 351 351 351 352
342 340 340 340 339 339 338 337 338 338 339 340 339 340 341 341 343 345 347 347 347 348 348 348 348 348 348 348 347 347 348 347 348 349 349 351 352 352 352 352 351 351 351 351 351 351 351 350 349 349 348 349 350 350 350 350 350 350 350 351 351 351 352
341 340 340 339 338 337 336 335 336 337 338 339 339 339 339 340 343 345 348 348 348 348 348 348 348 347 348 348 347 347 347 347 347 346 346 348 351 352 352 351 352 351 350 349 349 350 350 349 350 350 349 349 349 349 349 349 349 349 349 349 350 350 350
340 339 339 338 337 335 334 334 334 335 336 338 339 339 338 340 343 345 347 348 348 348 348 348 348 347 347 347 347 347 347 347 347 345 344 346 349 350 350 351 352 351 350 348 347 347 349 350 352 353 350 348 348 350 350 350 349 349 349 349 349 349 349
338 338 337 335 334 333 332 332 332 333 335 337 338 338 338 340 341 344 345 346 347 348 348 347 347 346 346 346 346 347 347 346 346 346 345 346 346 347 347 349 349 348 349 349 347 346 350 353 353 353 351 350 351 352 351 350 350 350 349 350 349 348 347
335 336 335 332 331 331 331 331 332 333 334 336 337 338 338 339 340 342 343 343 344 345 345 345 345 345 346 346 346 346 346 346 347 347 346 346 346 346 346 347 348 347 347 348 346 346 350 354 352 350 350 350 351 351 350 349 349 349 349 348 347 346 346
335 333 332 330 330 330 330 331 331 333 335 335 335 337 338 338 339 340 340 341 341 342 341 342 343 344 345 345 345 346 346 346 347 346 345 345 346 346 346 346 347 347 346 345 344 345 348 350 349 347 347 348 348 348 347 347 345 346 346 346 345 345 343
334 331 329 330 331 330 330 330 329 331 332 333 335 336 336 337 337 337 337 338 338 338 338 338 339 340 341 341 342 342 344 344 344 344 344 345 345 345 345 345 345 345 346 345 344 344 345 346 345 342 341 342 343 343 342 341 340 341 342 343 343 343 342
331 330 328 329 330 330 329 328 328 330 331 332 334 335 334 335 334 333 334 334 333 332 333 334 335 336 337 337 337 338 339 340 340 340 341 341 341 342 342 342 342 342 342 342 342 342 342 342 341 339 337 336 336 337 337 336 336 337 339 340 341 342 342
329 328 328 328 329 329 328 327 329 330 331 332 333 333 333 333 332 331 330 329 328 329 331 332 334 334 333 332 332 333 335 336 336 338 339 339 340 341 340 339 340 339 339 339 339 339 338 337 337 336 334 332 332 332 333 333 333 334 336 338 340 341 343
328 327 328 328 328 328 327 328 328 329 330 331 332 332 332 331 329 329 328 326 327 329 330 330 331 331 329 328 328 329 330 331 332 334 335 335 337 338 337 336 337 336 336 335 335 334 333 331 331 331 329 329 329 329 330 330 331 333 335 337 339 341 343
328 327 327 327 328 328 327 328 329 329 330 330 330 330 330 329 328 327 325 325 327 330 330 328 328 329 327 326 327 327 327 328 329 330 330 331 332 332 332 332 333 332 332 333 332 331 328 326 327 327 326 326 326 327 328 329 330 331 333 335 338 339 340
330 328 328 329 331 331 329 328 328 328 328 328 329 329 328 328 328 326 323 324 327 328 328 327 327 328 327 325 326 326 326 326 326 327 327 326 327 326 326 327 328 327 326 326 326 324 322 322 323 323 323 323 324 325 326 327 328 330 331 333 334 335 335
331 330 331 331 332 332 331 328 327 327 327 326 325 325 324 324 324 323 323 326 328 327 327 327 327 327 327 327 326 326 326 325 324 325 325 324 324 323 322 322 322 322 322 322 321 320 319 318 318 319 319 320 320 321 323 324 327 329 330 331 333 333 333
331 331 331 331 331 332 331 327 326 327 326 324 323 321 319 318 318 319 323 327 328 327 327 326 325 324 324 325 325 325 326 326 326 326 326 325 325 325 324 323 321 321 321 321 320 320 320 319 318 318 318 319 319 320 320 321 324 328 330 331 332 333 333
331 330 330 330 329 330 330 327 326 326 325 325 324 322 319 317 315 316 318 321 323 324 324 322 320 318 317 319 320 321 321 321 321 320 318 317 318 320 321 321 320 319 319 319 319 320 321 321 321 321 321 322 322 322 322 320 322 327 330 331 332 333 333
331 330 330 329 328 328 328 328 327 326 326 326 325 323 320 318 316 314 313 313 314 315 315 314 313 312 312 312 312 312 313 313 313 313 313 313 315 316 317 318 317 317 318 320 321 322 323 323 323 323 324 325 325 325 324 322 323 327 330 332 333 333 334
330 330 329 328 328 327 327 327 327 327 327 327 326 325 323 320 319 317 313 311 312 311 311 311 311 311 311 311 311 311 312 313 315 316 317 318 319 319 320 320 320 320 320 322 323 323 324 324 324 324 326 327 327 327 327 326 325 327 331 333 334 334 333
330 330 329 328 327 326 326 326 326 326 327 327 327 327 325 324 323 320 318 317 318 317 316 315 314 314 313 313 312 313 313 314 315 317 318 320 321 322 322 322 322 322 323 323 323 323 323 324 324 325 326 327 328 328 328 329 328 329 331 333 333 334 333
330 329 328 327 326 325 325 326 325 325 326 327 327 328 327 325 324 323 323 324 324 324 324 323 321 319 318 316 315 315 314 314 314 314 315 318 320 322 323 323 323 323 323 323 323 323 323 324 324 325 326 327 327 328 329 329 330 331 331 332 333 333 332
Wind_Speed
2 3 3 2 4 6 7 8 5 4 8 10 10 10 10 12 15 19 22 25 27 27 27 28 27 26 26 25 25 24 24 23 22 22 22 21 20 20 20 20 19 18 17 17 15 14 14 13 13 14 14 13 13 12 12 13 12 11 11 11 10 10 10
2 3 3 2 3 5 6 7 8 10 14 19 19 18 17 15 14 17 19 22 26 28 28 29 28 27 27 27 26 25 24 23 23 22 22 22 21 20 20 20 19 18 17 17 16 15 14 13 13 13 13 13 13 13 13 13 12 12 12 11 11 11 11
2 3 4 4 3 4 5 6 8 13 17 19 21 22 23 23 23 23 21 21 23 26 27 28 29 29 28 27 27 26 25 24 23 23 23 22 21 21 21 20 19 18 17 17 17 16 15 15 14 14 14 13 13 13 13 13 12 12 12 13 13 13 13
2 3 4 5 5 5 5 7 8 12 16 20 23 25 26 27 28 28 29 27 24 24 26 29 30 29 29 29 28 27 26 25 24 24 23 22 21 21 21 21 20 19 18 17 17 17 16 15 15 14 14 14 13 13 14 13 13 13 13 14 14 14 15
4 4 4 4 5 5 5 7 9 11 15 19 23 25 26 27 27 27 29 30 28 26 26 26 28 29 30 31 30 29 28 26 25 24 23 22 22 22 22 22 21 20 18 17 16 16 16 15 15 15 15 15 15 15 15 14 14 14 14 15 16 16 16
5 5 5 5 5 4 5 9 12 11 14 18 21 24 25 26 27 28 26 26 28 29 26 24 26 28 29 31 31 30 29 27 26 25 24 23 22 22 23 23 22 20 19 17 16 15 15 15 15 16 16 16 16 16 16 15 15 16 16 17 17 17 17
6 6 6 6 5 5 6 9 13 13 12 16 19 21 24 25 28 30 28 26 28 31 31 29 27 27 28 29 29 29 29 29 28 26 25 23 22 22 23 22 21 20 19 18 17 16 16 16 16 17 17 17 16 16 16 16 16 17 18 18 18 18 17
6 6 6 7 7 6 6 9 13 13 10 11 15 18 22 24 26 28 29 29 28 30 32 32 29 28 28 28 27 28 29 29 29 28 27 25 24 23 22 22 22 20 19 19 18 18 17 17 17 17 18 17 17 16 16 16 16 17 18 19 19 19 18
4 5 5 6 6 6 6 9 13 13 10 8 11 15 21 23 24 26 29 29 29 30 32 33 31 29 28 28 28 28 28 26 27 28 28 28 26 25 24 22 22 20 20 20 19 19 18 18 17 17 17 18 18 18 18 18 18 18 19 19 19 19 20
4 4 5 5 5 5 7 9 11 12 10 8 9 12 17 21 23 24 27 29 30 32 33 33 32 29 28 27 28 29 28 27 27 27 28 29 29 28 27 24 22 21 21 21 20 20 19 19 18 18 18 19 19 19 19 19 19 19 20 20 20 20 21
4 4 4 4 5 5 6 7 8 10 12 10 10 11 14 18 21 22 23 27 30 31 31 31 31 29 27 25 25 26 28 28 28 28 28 30 30 30 29 27 24 22 21 21 21 21 21 20 20 20 20 21 21 21 20 20 20 20 20 20 20 20 21
4 4 4 5 5 6 6 6 6 9 12 13 12 11 13 16 19 21 22 24 27 28 28 29 30 29 29 27 24 23 26 28 28 29 29 30 30 30 30 29 27 25 24 24 24 24 23 23 23 23 23 23 23 23 23 22 21 20 20 20 20 20 21
5 5 5 5 5 6 7 6 7 9 11 13 14 12 13 15 17 19 21 22 24 25 26 28 28 29 30 31 27 25 25 28 29 30 30 29 29 30 30 29 29 27 26 26 25 25 25 25 25 25 25 24 24 24 24 23 22 22 21 21 21 21 22
6 6 6 6 6 7 7 7 7 9 11 13 14 13 11 12 15 17 20 22 24 25 27 28 28 27 28 28 29 29 29 29 30 30 30 29 29 29 29 29 29 28 27 26 25 25 24 24 25 25 24 24 24 25 25 25 24 23 23 23 23 23 23
6 7 7 7 7 8 7 7 7 8 12 13 12 12 11 11 13 15 17 20 22 25 28 28 28 28 27 26 29 32 32 31 31 31 30 29 29 28 29 28 27 27 26 25 25 24 23 23 23 23 24 24 25 25 26 26 26 25 24 23 23 24 24
6 7 8 7 8 8 7 6 7 9 12 13 13 12 12 11 12 13 15 17 19 23 26 26 26 28 28 28 31 32 31 30 30 30 30 29 29 29 28 27 26 25 25 25 25 23 22 22 22 23 24 25 26 26 27 28 27 26 24 23 23 24 24
6 6 7 8 7 7 7 7 8 10 11 13 15 15 14 13 13 12 14 16 17 21 22 24 26 27 29 31 33 32 30 30 31 30 29 29 29 28 27 26 25 25 25 25 24 22 21 21 21 20 20 21 22 24 26 26 26 25 24 24 23 22 22
5 5 6 7 7 6 8 9 9 10 12 14 16 16 16 15 15 15 15 15 18 20 21 23 25 26 27 29 30 30 29 31 30 29 27 26 26 26 26 25 25 25 25 24 22 22 20 19 17 15 14 16 18 20 21 22 23 24 24 24 22 21 21
4 6 6 6 7 7 6 8 10 12 13 15 15 15 15 15 15 17 18 18 19 20 19 21 23 24 26 27 26 26 26 27 26 26 26 25 22 20 19 18 20 22 22 22 22 22 21 19 17 15 13 15 17 17 18 19 20 21 21 22 21 21 21
3 5 6 6 6 6 6 8 11 12 13 14 14 14 14 14 14 16 19 19 19 21 20 19 19 21 22 20 18 18 18 19 19 19 19 17 15 14 14 12 13 17 20 22 23 24 23 21 18 16 16 16 16 16 15 17 19 19 20 20 20 21 21
4 5 5 5 5 5 7 9 11 12 13 13 14 14 13 13 12 13 15 16 16 19 19 17 17 19 19 18 18 18 17 18 20 19 16 12 11 13 16 16 14 14 15 18 22 24 19 13 9 9 11 13 14 14 14 15 17 17 18 19 19 20 20
3 4 4 4 4 6 8 10 11 11 12 12 13 14 15 14 10 6 7 11 15 18 19 20 21 21 21 20 20 20 20 20 22 22 20 17 13 13 17 18 16 13 11 13 17 16 12 8 8 9 9 12 13 14 13 14 15 15 16 17 18 19 19
2 3 4 5 6 7 9 10 11 11 12 13 13 14 14 12 7 4 3 4 10 14 17 19 21 21 20 18 18 19 19 19 19 21 21 20 16 16 18 18 16 13 12 14 15 10 7 9 10 10 10 11 12 13 12 12 13 15 16 17 17 17 16
3 4 6 7 8 10 11 11 10 11 12 13 14 14 13 11 7 7 8 8 7 9 10 11 13 16 16 15 17 20 20 19 18 18 19 19 18 18 19 18 16 15 14 15 15 10 7 9 9 8 9 10 11 12 11 11 12 13 14 15 16 15 14
5 7 8 9 9 10 12 11 11 13 14 14 16 15 13 12 12 12 12 11 10 10 9 7 7 9 9 9 12 16 19 20 19 18 18 18 18 18 18 16 15 13 12 12 12 10 8 8 7 6 7 8 9 9 9 9 10 11 13 14 14 14 12
5 7 8 10 10 11 12 13 14 15 15 15 15 15 15 15 17 17 16 16 16 15 12 11 10 9 9 10 12 15 18 20 19 19 20 20 19 18 16 14 13 12 11 11 10 8 7 6 6 5 5 5 5 5 5 5 6 9 12 13 14 13 9
8 8 7 9 11 12 12 14 15 16 16 16 15 15 16 17 19 19 18 20 20 18 16 16 16 16 17 17 18 19 19 17 17 19 19 18 18 18 16 14 12 11 10 9 7 6 5 5 4 4 4 3 1 0 1 3 4 6 10 11 12 12 8
9 8 7 9 11 12 12 14 17 18 18 17 17 17 17 18 20 20 20 22 21 18 17 19 19 20 21 22 22 22 21 19 18 18 17 16 16 17 16 14 13 12 11 10 8 7 7 6 4 4 4 4 3 2 2 3 3 4 7 9 9 8 7
7 7 8 10 11 11 12 15 17 17 17 16 17 17 18 19 20 20 20 19 17 15 17 18 19 21 22 24 25 25 24 23 22 21 19 17 16 17 17 16 15 14 13 12 12 12 11 9 7 6 6 6 6 6 6 6 5 5 4 4 2 0 1
7 8 8 8 9 10 12 14 16 15 15 16 17 17 18 19 18 18 18 16 15 15 17 18 20 23 24 25 26 26 26 26 26 26 24 22 21 21 21 19 17 16 15 15 15 16 15 13 11 11 10 10 10 9 9 9 9 9 10 9 9 10 10
8 8 6 6 7 8 10 13 14 15 16 17 17 16 16 17 17 16 15 15 17 18 18 19 22 25 25 25 25 26 26 28 28 28 26 26 25 24 23 21 20 19 18 18 19 19 19 17 15 15 15 14 13 12 11 11 12 13 14 16 17 18 20
9 8 5 5 6 6 9 14 15 16 17 17 17 17 16 15 16 16 15 15 17 18 19 21 23 24 24 23 23 24 26 28 28 27 26 26 25 24 23 22 21 20 19 19 19 19 18 17 16 16 16 16 14 13 12 13 14 15 16 19 22 24 25
8 8 8 7 6 6 10 14 16 16 16 16 16 18 17 16 16 16 16 16 16 17 18 20 21 21 21 20 20 21 23 26 26 25 24 24 23 22 22 22 21 21 19 18 18 17 16 16 16 15 15 14 13 13 13 13 15 16 17 19 23 25 26
9 9 9 9 9 10 11 13 14 15 14 14 15 17 17 18 17 17 17 17 16 16 18 19 20 20 19 19 19 20 22 24 23 23 23 23 22 22 22 21 22 22 21 20 19 19 18 18 16 15 13 13 12 13 14 15 15 17 19 21 23 25 26
10 10 11 11 11 13 14 12 12 13 13 12 13 16 17 18 18 17 18 18 17 19 20 21 21 21 21 21 21 22 23 23 23 24 25 25 25 25 24 22 22 22 22 21 21 21 21 19 18 16 14 14 14 14 16 17 17 18 20 22 23 24 24
13 12 13 13 12 14 17 14 12 13 14 11 10 13 15 16 17 17 18 19 19 21 22 22 23 23 22 22 23 23 23 23 23 24 24 25 25 26 25 24 23 23 24 24 23 22 21 20 20 18 17 18 18 18 18 18 18 19 21 22 22 22 22
16 14 14 15 14 15 18 17 14 14 15 12 10 11 12 13 14 15 16 18 19 21 22 23 24 23 22 22 22 22 22 22 22 22 23 23 23 24 25 25 25 24 25 25 24 23 22 21 21 20 20 21 22 22 21 20 18 18 20 21 21 20 21
18 16 16 16 16 16 19 19 17 16 16 15 13 12 12 12 13 13 14 15 17 18 20 21 22 21 21 20 21 20 21 21 20 20 21 21 21 22 23 24 24 24 23 22 23 23 22 22 21 21 21 22 23 23 23 21 20 18 18 19 19 19 19
Wind_Direction
294 305 296 279 255 249 245 239 230 160 152 180 209 227 233 234 229 220 215 210 209 211 210 208 207 209 212 214 217 219 221 222 223 226 227 227 228 228 229 231 234 237 236 235 235 235 238 242 240 236 235 239 246 252 260 266 269 265 254 251 259 269 279
354 339 323 315 287 282 277 245 198 178 192 198 200 203 205 213 225 232 232 224 215 213 212 211 209 208 213 216 217 219 222 225 226 228 230 231 233 233 234 237 237 236 236 236 238 240 244 247 245 241 240 245 252 258 266 271 273 269 260 258 267 275 284
6 336 322 327 312 300 297 267 219 204 203 200 203 207 203 202 207 214 228 238 232 221 214 212 212 211 212 215 218 219 222 226 229 230 232 233 234 234 237 239 235 233 236 238 242 245 250 253 251 248 249 253 258 262 267 273 276 273 267 266 272 278 283
5 316 302 305 301 295 295 287 257 229 210 199 205 212 209 208 208 206 212 222 231 231 223 216 214 213 212 213 217 221 223 226 229 231 233 235 236 236 237 236 232 231 235 240 245 249 253 256 254 253 254 256 257 260 265 271 275 274 270 270 274 278 281
345 323 308 300 301 301 295 293 285 253 225 209 206 212 214 213 215 214 211 212 218 227 229 225 219 215 214 214 215 220 224 226 228 230 233 235 235 234 235 233 230 230 234 240 246 250 251 253 254 254 254 255 257 260 265 271 274 276 276 275 275 277 278
342 336 328 316 305 301 292 290 290 276 247 228 216 215 216 212 216 219 215 212 215 218 223 231 230 220 215 216 216 219 223 226 228 229 230 232 232 231 231 231 231 234 238 242 244 246 247 250 253 253 254 257 260 263 266 271 275 278 281 282 282 279 276
346 338 331 322 311 302 294 288 289 288 270 250 235 226 221 215 215 218 215 212 214 215 216 223 231 228 221 219 218 218 220 223 225 226 227 229 229 230 231 233 237 242 245 246 244 242 244 249 253 255 257 260 262 266 270 272 274 277 280 283 283 279 274
342 331 326 325 322 313 303 296 295 297 288 262 246 235 227 221 216 216 215 214 215 216 215 217 223 229 227 223 221 221 221 222 224 225 227 228 230 232 234 237 240 244 248 247 244 241 244 251 255 257 258 258 261 267 272 273 273 274 276 278 279 276 272
329 321 325 328 325 320 313 308 305 304 296 268 246 236 231 227 221 216 214 214 215 216 217 216 218 224 227 225 224 224 223 224 225 225 226 228 232 235 237 240 242 244 246 245 243 243 247 252 257 259 259 258 262 269 273 273 272 273 274 275 275 274 272
319 318 325 324 313 315 319 320 319 314 302 273 245 236 232 229 226 221 215 213 214 216 217 216 215 217 222 226 226 224 223 223 225 226 227 229 232 234 237 240 243 244 244 243 244 247 250 253 256 260 261 262 265 270 273 274 273 273 273 274 275 273 271
314 311 320 318 314 317 317 321 326 323 317 299 263 241 235 231 227 225 219 214 216 217 216 216 215 212 213 221 227 226 223 222 223 224 227 229 231 233 234 236 239 241 242 243 246 249 252 253 254 258 261 264 266 268 271 272 272 272 272 273 274 273 271
314 314 320 317 320 319 313 320 326 325 327 320 295 260 243 237 230 227 223 218 217 218 216 215 215 211 207 211 221 229 228 224 222 223 226 228 230 231 231 232 234 237 239 243 247 251 254 254 256 259 262 264 266 268 270 271 270 269 269 270 271 272 271
319 322 322 319 325 324 319 323 323 323 327 326 315 290 258 246 238 230 225 221 218 217 216 216 215 213 210 208 212 224 231 229 224 223 225 227 229 229 229 230 232 234 238 242 247 252 255 256 258 261 265 267 268 269 270 270 269 269 269 270 272 273 272
324 328 328 327 326 323 323 322 318 320 324 324 323 314 289 265 251 239 231 227 221 217 217 219 217 216 216 212 209 216 227 230 228 225 225 227 229 230 230 230 232 234 238 242 247 252 256 258 260 262 266 268 269 270 270 270 270 272 271 271 271 273 273
327 329 330 331 325 320 321 319 317 318 320 323 327 328 320 298 273 253 239 232 226 220 219 219 215 214 216 214 212 216 223 228 229 226 225 226 228 230 232 233 234 236 239 243 247 252 256 258 261 264 269 272 272 272 271 270 270 271 270 270 270 271 272
326 330 330 326 319 319 322 324 325 324 324 328 332 335 332 320 301 277 254 241 232 225 221 217 214 213 214 215 217 220 222 224 227 227 225 226 228 230 233 234 236 238 241 245 248 251 255 257 260 266 271 272 272 271 271 271 271 270 268 269 272 273 275
323 327 327 321 313 319 331 336 335 330 329 329 330 332 332 324 315 298 274 256 242 233 225 219 216 217 218 219 222 224 222 221 223 224 224 226 228 230 233 235 238 240 242 244 245 247 250 253 256 261 265 267 269 271 271 272 273 270 267 267 270 274 275
323 323 324 323 322 331 340 339 336 329 329 330 329 330 328 321 315 303 285 266 251 241 231 223 220 220 223 226 226 225 223 220 220 220 220 223 226 229 233 235 237 240 241 240 239 239 239 239 240 244 254 263 267 269 271 272 271 269 266 265 267 270 272
321 328 329 331 334 340 340 333 329 325 326 330 330 327 324 319 309 295 284 270 254 242 232 226 223 223 228 231 231 230 226 221 216 215 215 216 217 221 225 231 235 237 237 234 232 232 230 227 229 240 258 267 266 267 269 269 268 267 265 265 267 269 270
316 331 335 340 343 340 331 325 324 325 330 335 332 328 323 318 307 291 284 274 250 231 223 221 220 221 225 228 228 230 230 223 218 218 215 205 194 190 191 203 224 232 232 229 227 227 229 231 240 255 268 267 260 260 265 267 269 270 269 270 271 270 270
328 345 347 350 348 333 328 330 328 330 337 338 335 335 329 321 312 294 282 269 237 215 207 207 210 214 216 213 210 214 220 218 217 223 226 212 191 185 185 192 206 219 227 230 228 226 226 230 240 258 277 279 268 262 265 269 272 274 274 275 274 272 271
336 346 343 343 339 329 332 337 337 339 342 340 342 347 341 330 326 313 274 240 213 199 195 198 205 209 210 208 205 207 211 211 212 216 220 216 208 200 195 196 199 199 208 230 234 228 218 211 212 227 260 279 276 270 270 270 273 275 276 276 275 274 273
324 343 349 358 357 352 352 353 357 360 356 353 358 359 352 345 348 25 74 159 182 183 186 195 203 208 210 208 205 207 211 211 209 208 208 207 208 210 209 207 206 204 209 230 243 240 216 208 213 223 240 253 260 265 269 269 271 273 274 275 276 277 277
6 19 21 20 18 12 7 6 12 17 15 11 10 7 3 5 21 55 71 86 121 145 155 171 188 198 204 204 206 212 214 210 204 201 204 206 204 206 209 211 215 215 214 222 233 233 212 203 210 226 238 242 248 256 262 265 269 272 274 276 279 280 282
30 41 38 33 28 18 11 12 19 27 28 21 15 14 20 33 48 56 62 75 88 95 99 111 143 168 174 175 184 194 200 203 201 196 194 194 188 189 194 196 197 196 193 200 209 210 203 201 205 216 223 228 238 247 256 264 271 276 278 280 282 283 284
54 53 45 37 31 23 22 27 31 33 31 24 22 29 40 55 62 58 58 66 67 59 59 72 91 106 114 122 132 146 164 181 185 176 169 168 165 165 170 168 164 163 168 177 183 179 176 178 177 173 176 195 220 240 258 270 280 285 285 285 286 288 288
77 73 55 36 27 24 28 35 40 42 39 36 41 45 49 58 62 57 56 60 55 47 53 71 86 95 101 105 110 118 131 145 149 145 143 144 144 143 141 139 140 143 147 151 150 144 143 149 156 154 141 139 161 264 305 314 318 305 296 294 295 295 295
74 70 50 34 29 29 34 39 44 48 47 47 52 53 53 58 59 55 55 54 51 54 67 79 89 94 95 95 97 103 111 115 119 122 124 128 133 130 124 121 122 121 119 119 118 117 117 119 123 121 104 93 87 75 52 35 12 341 317 307 300 296 294
74 63 49 43 39 39 41 44 47 49 49 51 58 60 62 64 63 62 62 58 58 70 79 84 91 93 91 91 92 97 102 106 108 110 111 112 115 113 107 103 102 102 105 111 114 114 113 112 112 109 99 89 88 84 80 77 69 55 36 5 350 97 199
79 75 64 56 50 46 46 50 52 51 50 54 61 67 70 72 72 72 73 75 80 86 85 84 89 90 87 86 89 93 96 100 102 103 103 101 100 98 96 95 97 101 106 112 116 117 114 113 114 111 105 100 100 98 93 91 90 88 85 84 95 113 127
92 97 82 53 49 52 59 64 63 57 53 53 59 66 73 78 81 79 77 82 89 91 88 86 86 86 84 83 85 89 91 93 96 97 97 97 97 96 96 99 103 105 108 111 113 113 111 111 112 112 109 107 105 103 100 98 97 96 97 99 102 110 119
96 101 83 45 38 52 69 76 74 67 59 55 58 65 70 77 83 84 83 87 91 91 90 89 86 84 84 84 85 88 91 92 93 95 96 98 100 100 101 104 105 105 106 106 105 104 105 105 105 105 104 102 100 98 98 99 98 96 100 107 108 108 111
91 84 71 59 59 69 75 76 75 70 62 58 62 68 70 73 79 87 93 95 97 99 98 95 91 88 88 89 89 90 91 91 93 96 96 97 100 102 104 106 106 105 103 103 102 101 100 100 99 98 96 95 95 95 96 98 100 99 101 108 111 111 112
103 86 76 76 84 91 87 80 79 77 70 65 68 70 71 74 78 87 95 98 103 107 102 97 95 92 90 90 90 88 89 90 92 93 94 94 95 96 96 98 99 98 95 96 97 98 97 96 94 92 92 94 96 97 97 99 103 104 104 107 110 112 114
111 95 86 83 84 92 93 86 86 88 83 76 75 73 72 75 77 81 88 94 99 101 98 94 93 91 88 88 87 85 86 89 90 91 92 91 90 88 85 86 90 91 91 90 91 91 91 90 88 86 89 94 95 96 98 101 104 106 107 110 112 114 114
114 102 100 98 92 92 94 92 92 96 94 90 87 83 78 77 76 78 85 91 94 95 94 93 91 87 85 85 85 85 86 87 88 89 90 89 88 86 83 81 83 87 89 89 87 84 83 81 81 82 85 88 89 91 95 100 104 109 112 114 116 116 115
127 119 117 116 109 99 97 96 93 94 97 99 100 98 94 86 81 83 87 90 91 92 91 90 88 85 83 83 83 84 85 86 86 87 87 87 88 89 88 86 85 86 89 88 85 81 79 78 79 81 82 83 84 85 88 93 100 109 117 120 119 118 119
133 132 129 127 123 113 105 101 96 93 97 102 103 104 102 94 89 89 90 89 89 88 85 84 84 83 81 81 81 81 81 81 82 84 85 86 87 88 90 91 90 88 88 88 85 82 80 79 80 81 82 82 82 83 86 89 94 102 113 120 120 120 122